This is the latest recevied weather packets stored in our database for station/object KK6LVQ-13. If no packets are shown the sender has not sent any weather packets the latest 10 day(s).
| Time | Temp. | Humidity | Pressure | Rain* | Wind** | Luminosity | Snow |
|---|---|---|---|---|---|---|---|
| 1778084333 | 14.44° C | 84% | 1025.4 hPa | 0 mm | - | 514 W/m² | - |
| 1778084029 | 13.89° C | 85% | 1025.6 hPa | 0 mm | - | 261 W/m² | - |
| 1778083722 | 13.89° C | 85% | 1025.5 hPa | 0 mm | - | 165 W/m² | - |
| 1778083418 | 13.89° C | 86% | 1025.7 hPa | 0 mm | - | 126 W/m² | - |
| 1778083117 | 13.89° C | 86% | 1025.8 hPa | 0 mm | - | 106 W/m² | - |
| 1778082813 | 13.89° C | 86% | 1025.5 hPa | 0 mm | - | 114 W/m² | - |
| 1778081691 | 12.78° C | 90% | 1025.6 hPa | 0 mm | - | 283 W/m² | - |
| 1778081389 | 12.22° C | 92% | 1025.5 hPa | 0 mm | - | 260 W/m² | - |
| 1778081085 | 11.67° C | 95% | 1025.7 hPa | 0 mm | - | 251 W/m² | - |
| 1778080784 | 11.67° C | 96% | 1025.6 hPa | 0 mm | - | 243 W/m² | - |
| 1778080481 | 11.11° C | 97% | 1025.6 hPa | 0 mm | - | 219 W/m² | - |
| 1778080178 | 11.11° C | 98% | 1025.7 hPa | 0 mm | - | 174 W/m² | - |
| 1778079874 | 10.56° C | 98% | 1025.6 hPa | 0 mm | - | 114 W/m² | - |
| 1778079571 | 10.56° C | 98% | 1025.6 hPa | 0 mm | - | 74 W/m² | - |
| 1778079267 | 10.56° C | 98% | 1025.7 hPa | 0 mm | - | 71 W/m² | - |
| 1778078965 | 10.56° C | 99% | 1025.6 hPa | 0 mm | - | 58 W/m² | - |
| 1778078661 | 10.56° C | 99% | 1025.7 hPa | 0 mm | - | 48 W/m² | - |
| 1778078360 | 10° C | 99% | 1025.7 hPa | 0 mm | - | 41 W/m² | - |
| 1778078056 | 10.56° C | 99% | 1025.6 hPa | 0 mm | - | 38 W/m² | - |
| 1778077755 | 10.56° C | 99% | 1025.8 hPa | 0 mm | - | 34 W/m² | - |
| 1778077452 | 10.56° C | 99% | 1025.6 hPa | 0 mm | - | 34 W/m² | - |
| 1778077150 | 10.56° C | 99% | 1025.5 hPa | 0 mm | - | 40 W/m² | - |
| 1778076848 | 10° C | 99% | 1025.5 hPa | 0 mm | - | 45 W/m² | - |
| 1778076546 | 10° C | 99% | 1025.6 hPa | 0 mm | - | 44 W/m² | - |
| 1778076243 | 10° C | 99% | 1025.5 hPa | 0 mm | - | 37 W/m² | - |
* Rain latest hour (hover to see other rain measurements)
** Current wind speed in m/s (hover to see current wind gust speed)